Simultaneous Nadir Overpasses (SNOs) Predictions

Prediction of SNOs between NPP and TERRA Satellite Orbit:

Table of predicted SNOs for the next 14.0 days since TLE Epoch: 10/26/2024
Index Date (NPP) Time (NPP) Lat,Lon (NPP) SZA (NPP ) Date (TERRA) Time (TERRA) Lat,Lon (TERRA) SZA (TERRA ) Distance(km) Time Diff (sec)
1 10/27/2024 20:23:47 72.86,-134.45 85.98 10/27/2024 20:24:35 72.83,-134.45 85.94 3.80 48
2 10/27/2024 21:14:29 -72.78, 33.05 94.11 10/27/2024 21:13:58 -72.77, 33.10 94.11 1.81 31
3 10/30/2024 07:36:13 72.83, 57.50 86.76 10/30/2024 07:37:02 72.85, 57.44 86.78 2.85 49
4 10/30/2024 08:26:56 -72.80,-135.11 93.27 10/30/2024 08:26:25 -72.79,-135.02 93.28 3.10 31
5 11/01/2024 18:48:40 72.87,-110.69 87.59 11/01/2024 18:49:28 72.88,-110.67 87.59 0.74 48
6 11/01/2024 19:39:22 -72.78, 56.81 92.49 11/01/2024 19:38:52 -72.76, 56.77 92.52 3.24 30
7 11/04/2024 06:01:06 72.87, 81.20 88.36 11/04/2024 06:01:53 72.89, 81.22 88.37 2.14 47
8 11/04/2024 06:51:48 -72.79,-111.30 91.73 11/04/2024 06:51:17 -72.77,-111.35 91.74 2.34 31
9 11/06/2024 17:13:32 72.89, -86.95 89.12 11/06/2024 17:14:17 72.91, -86.90 89.13 2.31 45
10 11/06/2024 18:04:14 -72.80, 80.56 90.97 11/06/2024 18:03:41 -72.78, 80.53 90.99 2.59 33



Historial Predications of SNOs between NPP and TERRA
